• In France
  • List of Countries
  • For 7 days
  • Water Temperature
  • Satellite Maps
  • Weather Map
  • Weather Widgets
  • user-avatar
    Login

    Hourly Weather Wien

    Today, 23 October, Tuesday

    Time Temperature Precipitation Wind Pressure Humidity
    00:00 +8°C° 0 mm 4 mps 751 mmHg 73%
    01:00 +8°C° 0 mm 3 mps 751 mmHg 79%
    02:00 +9°C° 0 mm 3 mps 750 mmHg 79%
    03:00 +8°C° 0 mm 4 mps 750 mmHg 80%
    04:00 +8°C° 0 mm 4 mps 750 mmHg 80%
    05:00 +7°C° 0 mm 4 mps 750 mmHg 81%
    06:00 +8°C° 0 mm 3 mps 750 mmHg 82%
    07:00 +7°C° 0 mm 3 mps 750 mmHg 83%
    08:00 +8°C° 0 mm 4 mps 749 mmHg 75%
    09:00 +10°C° 0 mm 5 mps 748 mmHg 68%
    10:00 +11°C° 0 mm 6 mps 748 mmHg 60%
    11:00 +13°C° 0 mm 6 mps 747 mmHg 55%
    12:00 +14°C° 0 mm 7 mps 746 mmHg 51%
    13:00 +15°C° 0 mm 7 mps 746 mmHg 46%
    14:00 +14°C° 0.1 mm 7 mps 745 mmHg 48%
    15:00 +14°C° 0.1 mm 7 mps 744 mmHg 50%
    16:00 +12°C° 0.1 mm 7 mps 744 mmHg 51%
    17:00 +12°C° 0.2 mm 8 mps 743 mmHg 56%
    18:00 +11°C° 0.2 mm 9 mps 743 mmHg 61%
    19:00 +11°C° 0.2 mm 9 mps 743 mmHg 65%
    20:00 +11°C° 0 mm 9 mps 742 mmHg 66%
    21:00 +11°C° 0 mm 10 mps 742 mmHg 66%
    22:00 +11°C° 0 mm 10 mps 742 mmHg 67%
    23:00 +11°C° 0 mm 10 mps 741 mmHg 66%

    Tomorrow, 24 October, Wednesday

    Time Temperature Precipitation Wind Pressure Humidity
    00:00 +11°C° 0 mm 10 mps 740 mmHg 66%
    01:00 +12°C° 0 mm 10 mps 739 mmHg 65%
    02:00 +12°C° 0.1 mm 11 mps 739 mmHg 65%
    03:00 +12°C° 0.1 mm 11 mps 738 mmHg 65%
    04:00 +12°C° 0.1 mm 12 mps 737 mmHg 65%
    05:00 +12°C° 0.5 mm 12 mps 737 mmHg 67%
    06:00 +13°C° 0.5 mm 11 mps 737 mmHg 68%
    07:00 +13°C° 0.5 mm 11 mps 737 mmHg 70%
    08:00 +12°C° 1.6 mm 11 mps 738 mmHg 71%
    09:00 +11°C° 1.6 mm 10 mps 738 mmHg 72%
    10:00 +10°C° 1.6 mm 9 mps 738 mmHg 73%
    11:00 +10°C° 1.4 mm 9 mps 739 mmHg 72%
    12:00 +10°C° 1.4 mm 9 mps 739 mmHg 71%
    13:00 +8°C° 1.4 mm 9 mps 739 mmHg 69%
    14:00 +9°C° 0.4 mm 8 mps 740 mmHg 66%
    15:00 +9°C° 0.4 mm 8 mps 740 mmHg 64%
    16:00 +9°C° 0.4 mm 8 mps 741 mmHg 61%
    17:00 +8°C° 0 mm 7 mps 742 mmHg 63%
    18:00 +8°C° 0 mm 6 mps 743 mmHg 66%
    19:00 +7°C° 0 mm 5 mps 743 mmHg 68%
    20:00 +7°C° 0 mm 5 mps 744 mmHg 69%
    21:00 +6°C° 0 mm 5 mps 744 mmHg 70%
    22:00 +6°C° 0 mm 5 mps 745 mmHg 71%
    23:00 +6°C° 0 mm 4 mps 745 mmHg 73%

    Day after tomorrow, 25 October, Thursday

    Time Temperature Precipitation Wind Pressure Humidity
    00:00 +6°C° 0 mm 4 mps 745 mmHg 75%
    01:00 +6°C° 0 mm 4 mps 745 mmHg 76%
    02:00 +6°C° 0.1 mm 4 mps 745 mmHg 77%
    03:00 +7°C° 0.1 mm 4 mps 744 mmHg 79%
    04:00 +9°C° 0.1 mm 3 mps 744 mmHg 80%
    05:00 +8°C° 0.1 mm 4 mps 744 mmHg 81%
    06:00 +10°C° 0.1 mm 4 mps 744 mmHg 82%
    07:00 +11°C° 0.1 mm 4 mps 743 mmHg 82%
    08:00 +11°C° 0 mm 6 mps 743 mmHg 77%
    09:00 +12°C° 0 mm 7 mps 743 mmHg 72%
    10:00 +13°C° 0 mm 8 mps 743 mmHg 67%
    11:00 +15°C° 0.1 mm 8 mps 742 mmHg 65%
    12:00 +15°C° 0.1 mm 8 mps 742 mmHg 63%
    13:00 +15°C° 0.1 mm 8 mps 742 mmHg 61%
    14:00 +15°C° 0 mm 8 mps 741 mmHg 62%
    15:00 +14°C° 0 mm 7 mps 741 mmHg 63%
    16:00 +14°C° 0 mm 6 mps 741 mmHg 65%
    17:00 +13°C° 0 mm 6 mps 741 mmHg 67%
    18:00 +13°C° 0 mm 5 mps 742 mmHg 70%
    19:00 +12°C° 0 mm 5 mps 742 mmHg 72%
    20:00 +12°C° 0 mm 5 mps 742 mmHg 74%
    21:00 +11°C° 0 mm 4 mps 742 mmHg 76%
    22:00 +11°C° 0 mm 4 mps 742 mmHg 77%
    23:00 +10°C° 0 mm 4 mps 742 mmHg 78%

    26 October, Friday

    Time Temperature Precipitation Wind Pressure Humidity
    00:00 +10°C° 0 mm 4 mps 742 mmHg 79%
    01:00 +10°C° 0 mm 4 mps 742 mmHg 80%
    02:00 +9°C° 0 mm 3 mps 742 mmHg 81%
    03:00 +9°C° 0 mm 3 mps 742 mmHg 83%
    04:00 +8°C° 0 mm 3 mps 742 mmHg 84%
    05:00 +8°C° 0 mm 2 mps 742 mmHg 85%
    06:00 +8°C° 0 mm 2 mps 742 mmHg 86%
    07:00 +9°C° 0 mm 1 mps 742 mmHg 87%
    08:00 +11°C° 0 mm 1 mps 741 mmHg 79%
    09:00 +12°C° 0 mm 1 mps 741 mmHg 72%
    10:00 +14°C° 0 mm 1 mps 741 mmHg 65%
    11:00 +15°C° 0 mm 2 mps 741 mmHg 63%
    12:00 +16°C° 0 mm 2 mps 740 mmHg 61%
    13:00 +16°C° 0 mm 2 mps 740 mmHg 58%
    14:00 +16°C° 0 mm 2 mps 739 mmHg 62%
    15:00 +15°C° 0 mm 2 mps 739 mmHg 65%
    16:00 +15°C° 0 mm 2 mps 738 mmHg 69%
    17:00 +14°C° 0 mm 2 mps 738 mmHg 74%
    18:00 +13°C° 0 mm 2 mps 738 mmHg 78%
    19:00 +12°C° 0 mm 2 mps 738 mmHg 83%
    20:00 +12°C° 0 mm 2 mps 738 mmHg 85%
    21:00 +11°C° 0 mm 1 mps 738 mmHg 86%
    22:00 +11°C° 0 mm 1 mps 738 mmHg 88%
    23:00 +11°C° 0 mm 1 mps 738 mmHg 88%

    27 October, Saturday

    Time Temperature Precipitation Wind Pressure Humidity
    00:00 +10°C° 0 mm 1 mps 737 mmHg 88%
    01:00 +10°C° 0 mm 1 mps 737 mmHg 88%
    02:00 +10°C° 0 mm 1 mps 737 mmHg 88%
    03:00 +10°C° 0 mm 1 mps 737 mmHg 88%
    04:00 +10°C° 0 mm 1 mps 737 mmHg 88%
    05:00 +10°C° 0 mm 1 mps 737 mmHg 88%
    06:00 +10°C° 0 mm 1 mps 737 mmHg 87%
    07:00 +10°C° 0 mm 1 mps 737 mmHg 87%
    08:00 +11°C° 0.1 mm 1 mps 737 mmHg 82%
    09:00 +12°C° 0.1 mm 1 mps 737 mmHg 77%
    10:00 +12°C° 0.1 mm 1 mps 737 mmHg 72%
    11:00 +12°C° 0.2 mm 1 mps 737 mmHg 73%
    12:00 +12°C° 0.2 mm 2 mps 736 mmHg 73%
    13:00 +12°C° 0.2 mm 2 mps 736 mmHg 73%
    14:00 +10°C° 0.9 mm 2 mps 736 mmHg 78%
    15:00 +10°C° 0.9 mm 2 mps 736 mmHg 82%
    16:00 +10°C° 0.9 mm 1 mps 736 mmHg 87%
    17:00 +9°C° 0.7 mm 2 mps 736 mmHg 88%
    18:00 +8°C° 0.7 mm 2 mps 736 mmHg 90%
    19:00 +8°C° 0.7 mm 2 mps 736 mmHg 91%
    20:00 +8°C° 0.3 mm 2 mps 736 mmHg 91%
    21:00 +8°C° 0.3 mm 2 mps 736 mmHg 90%
    22:00 +8°C° 0.3 mm 2 mps 735 mmHg 90%
    23:00 +8°C° 0.3 mm 3 mps 735 mmHg 89%

    28 October, Sunday

    Time Temperature Precipitation Wind Pressure Humidity
    00:00 +8°C° 0.3 mm 3 mps 734 mmHg 88%
    01:00 +8°C° 0.3 mm 3 mps 734 mmHg 88%
    02:00 +8°C° 0.2 mm 3 mps 733 mmHg 88%
    03:00 +8°C° 0.2 mm 3 mps 733 mmHg 87%
    04:00 +7°C° 0.2 mm 3 mps 732 mmHg 87%
    05:00 +7°C° 0.2 mm 3 mps 732 mmHg 88%
    06:00 +7°C° 0.2 mm 3 mps 732 mmHg 89%
    07:00 +7°C° 0.2 mm 3 mps 732 mmHg 90%
    08:00 +7°C° 0.3 mm 3 mps 732 mmHg 90%
    09:00 +8°C° 0.3 mm 3 mps 731 mmHg 91%
    10:00 +8°C° 0.3 mm 3 mps 731 mmHg 91%
    11:00 +8°C° 0.6 mm 3 mps 731 mmHg 91%
    12:00 +8°C° 0.6 mm 3 mps 731 mmHg 90%
    13:00 +9°C° 0.6 mm 3 mps 730 mmHg 90%
    14:00 +8°C° 1.2 mm 3 mps 730 mmHg 90%
    15:00 +8°C° 1.2 mm 3 mps 730 mmHg 91%
    16:00 +8°C° 1.2 mm 3 mps 730 mmHg 92%
    17:00 +8°C° 2.6 mm 3 mps 729 mmHg 92%
    18:00 +8°C° 2.6 mm 3 mps 729 mmHg 93%
    19:00 +7°C° 2.6 mm 3 mps 729 mmHg 93%
    20:00 +7°C° 2.2 mm 3 mps 729 mmHg 93%
    21:00 +7°C° 2.2 mm 3 mps 728 mmHg 93%
    22:00 +7°C° 2.2 mm 3 mps 728 mmHg 92%
    23:00 +7°C° 1.1 mm 3 mps 728 mmHg 92%

    29 October, Monday

    Time Temperature Precipitation Wind Pressure Humidity
    00:00 +7°C° 1.1 mm 3 mps 727 mmHg 92%
    01:00 +6°C° 1.1 mm 4 mps 727 mmHg 91%
    02:00 +6°C° 1.4 mm 4 mps 727 mmHg 91%
    03:00 +7°C° 1.4 mm 3 mps 726 mmHg 90%
    04:00 +5°C° 1.4 mm 3 mps 726 mmHg 90%
    05:00 +5°C° 0.8 mm 4 mps 726 mmHg 90%
    06:00 +5°C° 0.8 mm 4 mps 726 mmHg 89%
    07:00 +5°C° 0.8 mm 4 mps 726 mmHg 89%
    08:00 +5°C° 0.5 mm 4 mps 726 mmHg 88%
    09:00 +5°C° 0.5 mm 4 mps 726 mmHg 87%
    10:00 +5°C° 0.5 mm 4 mps 726 mmHg 86%
    11:00 +5°C° 0.3 mm 4 mps 726 mmHg 85%
    12:00 +6°C° 0.3 mm 4 mps 726 mmHg 84%
    13:00 +6°C° 0.3 mm 4 mps 726 mmHg 83%
    14:00 +6°C° 0.4 mm 4 mps 726 mmHg 83%
    15:00 +6°C° 0.4 mm 4 mps 726 mmHg 82%
    16:00 +5°C° 0.4 mm 4 mps 726 mmHg 82%
    17:00 +5°C° 1.2 mm 5 mps 726 mmHg 83%
    18:00 +5°C° 1.2 mm 5 mps 727 mmHg 84%
    19:00 +3°C° 1.2 mm 6 mps 727 mmHg 84%
    20:00 +3°C° 0.1 mm 5 mps 728 mmHg 83%
    21:00 +3°C° 0.1 mm 5 mps 729 mmHg 81%
    22:00 +3°C° 0.1 mm 5 mps 729 mmHg 80%
    23:00 +4°C° 0 mm 4 mps 730 mmHg 80%
    Show more